Wind_Speed
16 16 17 17 17 17 16 16 16 17 18 19 20 20 20 19 19 19 17 14 14 13 14 15 15 16 17 18 18 19 19 19 19 18 17 18 18 18 17 17 17 17 18
19 19 19 20 19 20 19 19 18 19 20 21 22 22 22 22 22 21 20 17 16 17 16 17 18 19 20 20 21 20 20 19 18 17 17 17 18 18 18 18 18 18 19
21 22 22 23 23 22 22 22 22 22 22 22 23 24 24 24 23 23 22 21 19 19 19 20 21 21 22 22 22 21 20 19 18 18 18 18 19 19 19 19 19 19 20
20 23 24 24 26 26 26 25 24 24 24 24 25 25 26 26 25 25 25 24 23 23 22 22 23 23 23 23 22 21 20 20 19 19 19 19 19 20 20 21 21 21 21
23 24 26 25 27 28 30 29 28 28 27 27 27 27 28 28 28 28 27 26 26 25 25 26 25 24 23 23 24 22 19 19 20 20 20 21 21 21 21 22 22 23 23
28 27 27 28 28 30 30 32 33 30 30 29 30 30 31 30 31 31 29 29 28 27 27 26 26 26 26 24 23 23 21 21 21 22 23 24 24 24 24 24 24 25 26
36 33 29 29 31 32 33 32 34 35 33 31 33 33 33 34 34 33 31 31 31 29 31 28 27 27 26 26 25 23 23 24 25 26 26 27 28 28 28 27 26 26 27
36 40 35 32 33 36 36 36 36 36 35 35 36 35 37 36 37 33 33 33 33 33 32 29 30 29 28 27 26 26 25 25 26 28 29 30 30 30 30 30 29 28 28
41 39 40 40 39 39 41 39 39 39 39 37 38 40 40 41 36 36 36 36 37 36 33 32 32 31 30 29 29 28 27 27 29 30 32 33 32 32 31 30 30 29 28
37 44 41 42 45 44 44 44 42 43 42 43 42 42 43 42 43 43 39 41 40 38 33 32 31 31 32 32 31 30 31 31 32 33 33 35 36 35 32 31 30 29 28
36 40 35 35 47 47 48 47 47 47 47 47 46 46 47 46 46 49 48 43 45 46 43 40 37 38 37 35 34 33 32 31 33 34 34 34 34 35 35 32 30 30 29
47 44 48 49 46 45 50 50 50 52 53 52 50 50 51 52 52 51 51 49 47 46 46 47 45 42 38 37 36 33 32 33 32 30 29 31 33 35 35 34 31 31 31
46 44 45 33 42 48 45 50 52 53 54 56 57 55 54 55 55 56 56 54 53 50 48 48 46 46 44 42 39 36 35 34 33 30 31 31 32 35 36 35 33 32 33
50 48 56 51 44 41 50 47 47 51 52 56 59 60 60 60 58 58 59 59 59 57 56 53 49 47 47 47 46 43 40 38 35 34 33 34 35 36 35 35 36 36 35
45 50 48 60 50 54 52 47 55 46 51 52 56 59 62 63 62 62 63 63 63 64 64 60 55 50 49 51 52 49 47 43 39 37 35 36 36 38 36 35 35 37 38
47 50 50 52 52 63 56 59 52 51 54 52 52 56 58 62 65 66 66 67 67 68 69 64 61 58 53 53 55 53 51 47 44 43 37 35 37 39 37 35 36 36 38
36 50 52 50 69 47 76 70 49 54 60 50 57 56 53 60 58 66 68 67 69 69 72 68 65 63 60 57 56 56 52 50 48 43 42 38 35 36 38 38 36 36 37
36 40 46 54 45 53 56 62 66 78 68 60 53 51 68 57 49 63 71 68 69 68 69 71 68 68 65 59 58 57 54 51 47 45 43 42 39 36 36 38 37 34 35
37 35 36 40 44 48 50 52 72 74 85 82 71 81 71 66 53 43 80 76 64 70 70 70 70 70 67 61 59 59 57 56 51 46 45 44 42 42 39 38 36 34 32
37 37 38 36 35 40 51 52 54 51 67 79 75 75 77 87 86 79 65 46 59 81 68 66 65 64 57 60 56 53 54 52 53 53 49 52 55 51 42 36 35 35 31
39 36 34 36 40 41 38 46 54 55 55 60 67 62 71 72 81 93 84 85 72 68 71 62 68 61 53 46 48 42 42 42 48 54 60 64 44 44 39 37 36 36 35
37 41 40 35 36 41 41 40 45 47 60 64 44 56 59 59 73 74 52 57 63 54 48 79 78 65 28 27 31 36 38 44 56 63 67 69 49 37 37 35 32 33 35
40 40 41 40 37 37 39 39 40 40 39 50 57 53 44 47 55 52 54 65 72 76 53 39 37 33 45 62 62 48 40 38 48 55 43 47 47 41 39 33 34 35 35
40 39 39 41 40 35 35 38 39 39 37 36 40 46 52 52 52 51 55 45 35 42 38 57 57 58 54 51 51 53 47 45 50 46 41 44 46 45 38 37 38 38 38
47 43 39 37 38 34 34 35 37 38 39 40 40 41 42 50 52 54 54 58 57 30 35 34 26 45 45 40 45 53 48 48 48 50 43 41 44 43 44 42 41 39 38
47 44 38 34 32 33 32 33 34 37 37 37 38 42 44 44 46 50 58 55 66 56 42 34 47 45 36 24 24 28 35 43 46 45 42 43 46 46 47 44 42 41 35
Wind_Direction
238 235 240 237 236 241 246 250 252 249 246 241 239 238 238 236 234 240 252 245 240 246 256 267 276 285 292 296 299 301 303 305 306 308 310 311 310 310 310 309 310 312 313
261 253 243 245 242 244 241 248 249 252 250 247 241 239 238 236 240 243 246 252 252 260 268 276 283 289 292 293 294 296 299 301 303 306 309 310 310 310 309 311 312 311 309
262 266 260 256 249 247 248 247 250 253 252 250 247 243 242 241 242 246 249 255 261 264 273 280 286 287 286 288 290 293 297 299 301 304 308 311 312 312 312 312 309 307 309
253 258 262 262 263 260 256 253 254 254 255 252 251 249 247 246 247 249 252 258 263 271 277 280 280 281 284 285 289 292 295 298 301 304 307 311 312 314 315 314 312 312 310
265 264 263 259 262 263 262 261 257 258 255 253 252 252 249 248 250 253 256 259 264 271 277 280 279 279 278 280 286 289 291 295 298 303 306 309 311 315 318 317 316 313 309
260 260 262 267 262 261 261 264 265 260 260 258 255 252 251 250 250 252 256 260 265 269 273 273 275 277 280 282 282 285 289 294 297 299 302 305 308 310 313 315 316 315 314
267 261 258 263 266 265 265 261 263 266 263 261 259 255 254 255 253 254 258 262 267 272 274 272 271 273 275 277 281 285 286 291 296 300 301 303 306 307 308 308 310 311 312
260 267 264 258 261 265 264 264 264 263 264 263 265 262 259 257 256 258 262 264 268 271 272 272 271 271 273 276 279 282 286 290 294 297 299 302 303 304 304 303 303 306 308
268 268 264 262 257 259 261 262 263 264 265 263 263 265 264 262 265 259 261 264 266 267 267 268 271 275 276 276 279 283 285 288 291 293 296 297 299 300 300 299 297 298 301
259 274 265 262 260 257 259 260 260 262 262 261 262 261 264 266 268 269 267 270 271 271 265 264 271 269 271 274 276 278 283 288 291 293 293 294 295 296 296 296 292 288 290
251 253 253 265 261 258 258 258 259 258 260 261 261 262 264 264 264 266 266 264 269 275 276 271 268 267 269 273 274 278 282 288 290 293 296 296 293 290 290 290 289 283 283
247 254 254 253 253 261 258 257 256 258 259 258 258 259 260 263 264 264 265 267 268 264 268 274 275 274 272 269 268 270 277 284 288 286 293 296 292 287 283 282 284 279 278
256 244 247 247 255 259 256 261 258 255 256 258 259 257 257 259 263 267 267 266 265 262 260 260 262 270 274 275 272 271 274 281 285 281 289 294 297 290 282 279 277 277 276
254 258 245 253 247 250 260 253 257 260 260 259 257 258 259 259 258 259 263 267 267 266 266 262 262 262 265 267 267 269 272 277 282 282 290 294 298 301 287 277 274 273 273
267 258 259 250 256 253 251 252 255 254 256 258 260 260 258 259 258 259 259 260 263 264 263 263 262 259 260 262 264 268 271 274 280 280 290 296 297 301 297 279 272 272 272
281 266 262 260 243 249 262 260 257 254 254 255 256 259 258 258 257 258 258 259 260 261 263 263 265 265 262 261 264 267 270 274 276 275 283 290 294 299 295 288 278 273 272
294 277 268 263 261 263 246 252 258 262 245 255 250 252 264 259 261 259 256 256 257 258 260 261 261 263 262 261 262 266 269 271 272 273 276 286 291 291 288 288 285 278 273
306 299 276 269 274 256 253 258 252 252 263 268 261 260 253 249 265 267 262 257 255 257 259 261 261 260 260 260 260 261 264 266 268 269 271 279 290 288 285 284 285 282 275
306 304 302 287 277 277 261 257 251 254 254 259 262 264 270 266 263 272 252 259 263 257 256 256 257 256 256 254 254 257 260 265 268 270 268 273 289 290 283 280 282 285 280
309 305 301 299 294 288 277 269 258 259 257 253 258 259 264 257 269 266 277 262 272 252 253 255 253 253 254 252 250 248 254 254 257 260 268 276 276 279 278 279 282 280 278
317 314 305 297 296 294 291 281 270 262 259 252 255 258 256 259 263 263 269 273 269 276 247 251 246 249 245 230 239 228 235 239 249 261 270 274 269 270 276 280 280 280 278
316 316 312 302 292 291 293 287 285 280 268 268 268 259 256 252 253 254 263 255 249 279 277 248 240 237 218 234 267 237 254 279 281 267 275 278 252 263 271 271 274 280 274
322 315 312 308 301 290 289 289 286 287 282 269 273 277 268 257 249 254 262 256 260 255 269 265 254 267 271 281 272 258 260 258 268 266 262 242 246 253 251 260 269 273 276
324 318 311 306 303 295 289 287 288 289 286 282 278 274 268 279 269 265 252 245 249 244 246 248 256 263 263 268 263 253 250 252 259 249 258 254 248 248 257 260 264 269 275
326 322 316 310 304 301 295 291 290 287 285 285 281 281 280 272 271 272 272 265 256 283 283 260 261 259 241 242 250 249 245 260 256 256 266 263 262 265 262 259 265 269 279
326 324 322 318 311 309 306 302 299 294 291 286 277 274 276 275 271 269 266 265 260 279 277 269 262 240 261 279 295 263 251 250 256 260 263 265 265 269 268 261 261 266 276
Height
3189 3190 3191 3192 3193 3194 3195 3196 3197 3197 3197 3198 3199 3199 3200 3201 3202 3203 3203 3204 3204 3204 3205 3205 3205 3204 3204 3203 3202 3202 3201 3200 3199 3198 3197 3196 3194 3193 3191 3190 3188 3187 3186
3189 3189 3189 3189 3190 3191 3192 3193 3193 3194 3195 3195 3196 3197 3197 3198 3199 3200 3201 3201 3202 3202 3202 3202 3202 3201 3201 3200 3200 3199 3198 3198 3196 3195 3194 3193 3192 3190 3188 3187 3186 3184 3183
3186 3187 3188 3188 3187 3187 3188 3189 3190 3190 3191 3192 3193 3194 3195 3195 3196 3197 3198 3198 3198 3199 3199 3199 3199 3198 3198 3197 3197 3196 3195 3194 3193 3192 3191 3190 3189 3187 3186 3184 3182 3181 3180
3183 3183 3184 3186 3187 3186 3185 3185 3186 3186 3187 3187 3188 3189 3190 3192 3193 3193 3193 3194 3195 3195 3195 3196 3195 3195 3194 3193 3192 3192 3191 3190 3189 3189 3187 3186 3185 3184 3182 3181 3179 3177 3175
3179 3181 3180 3181 3182 3183 3183 3182 3183 3182 3182 3183 3184 3184 3185 3186 3187 3188 3189 3189 3190 3191 3191 3191 3191 3190 3190 3189 3188 3187 3187 3186 3185 3184 3183 3182 3181 3180 3178 3177 3175 3173 3171
3173 3174 3175 3177 3178 3177 3178 3180 3179 3179 3179 3179 3179 3179 3180 3181 3181 3182 3183 3184 3184 3185 3186 3185 3185 3184 3184 3184 3184 3183 3182 3181 3181 3180 3179 3178 3177 3175 3174 3172 3170 3168 3166
3166 3167 3170 3171 3171 3172 3172 3173 3174 3174 3174 3175 3174 3174 3175 3174 3175 3176 3178 3178 3178 3179 3178 3178 3179 3178 3179 3179 3178 3178 3177 3176 3175 3175 3174 3173 3172 3171 3169 3168 3166 3164 3162
3160 3160 3163 3165 3165 3165 3165 3166 3167 3167 3168 3170 3168 3169 3167 3169 3168 3171 3171 3171 3171 3171 3171 3172 3171 3172 3172 3172 3172 3172 3172 3171 3170 3169 3168 3167 3166 3164 3163 3162 3161 3159 3157
3153 3154 3153 3154 3156 3156 3156 3159 3160 3160 3160 3162 3163 3162 3160 3159 3164 3164 3164 3164 3164 3164 3164 3165 3164 3164 3164 3164 3164 3164 3164 3164 3163 3161 3160 3158 3158 3157 3156 3155 3154 3153 3152
3141 3144 3145 3144 3144 3146 3146 3148 3150 3151 3152 3152 3153 3153 3153 3156 3153 3153 3156 3154 3153 3154 3155 3156 3156 3156 3155 3155 3156 3157 3156 3156 3155 3154 3153 3151 3150 3149 3149 3148 3147 3146 3145
3134 3133 3130 3132 3133 3134 3135 3138 3139 3139 3141 3142 3143 3145 3144 3144 3146 3143 3142 3147 3145 3143 3144 3145 3146 3145 3146 3148 3149 3150 3149 3149 3148 3146 3144 3143 3141 3141 3141 3140 3139 3138 3137
3124 3123 3120 3120 3122 3123 3123 3125 3127 3127 3128 3129 3132 3133 3133 3132 3132 3134 3132 3134 3134 3137 3136 3135 3135 3138 3140 3140 3140 3141 3141 3139 3139 3138 3137 3135 3133 3132 3130 3130 3130 3128 3128
3111 3113 3112 3109 3111 3111 3111 3114 3114 3114 3115 3116 3118 3119 3120 3120 3122 3122 3120 3120 3119 3122 3124 3124 3126 3126 3126 3128 3129 3130 3130 3130 3129 3128 3128 3127 3125 3123 3121 3121 3120 3119 3119
3100 3100 3100 3099 3100 3098 3098 3101 3102 3102 3103 3103 3103 3104 3106 3107 3109 3109 3108 3110 3107 3106 3107 3108 3112 3114 3114 3113 3114 3117 3118 3120 3121 3120 3118 3117 3115 3113 3111 3110 3110 3109 3109
3091 3090 3087 3087 3088 3091 3087 3087 3089 3088 3090 3091 3090 3090 3091 3092 3094 3095 3096 3096 3095 3092 3090 3093 3097 3101 3101 3101 3101 3104 3105 3108 3108 3108 3107 3105 3104 3102 3101 3100 3099 3099 3098
3083 3079 3076 3076 3072 3075 3075 3075 3073 3074 3073 3076 3077 3077 3076 3075 3078 3078 3079 3079 3079 3077 3074 3082 3082 3086 3090 3088 3086 3089 3091 3093 3095 3096 3096 3095 3093 3091 3090 3089 3089 3088 3087
3072 3070 3068 3064 3062 3059 3061 3060 3057 3059 3058 3055 3060 3061 3063 3064 3061 3060 3060 3060 3059 3062 3058 3065 3068 3070 3073 3076 3076 3073 3076 3078 3081 3084 3084 3083 3081 3080 3079 3079 3078 3078 3076
3062 3058 3054 3053 3050 3048 3047 3044 3038 3046 3040 3041 3042 3045 3048 3052 3047 3048 3047 3043 3042 3046 3049 3048 3053 3053 3055 3060 3062 3062 3061 3063 3067 3070 3071 3070 3069 3068 3068 3069 3068 3067 3065
3054 3049 3045 3040 3038 3035 3032 3029 3027 3021 3021 3024 3027 3020 3038 3029 3026 3032 3009 3025 3028 3028 3032 3034 3037 3038 3040 3042 3045 3047 3049 3051 3053 3054 3055 3057 3056 3057 3058 3059 3058 3056 3056
3045 3040 3036 3031 3026 3025 3022 3017 3016 3014 3014 3013 3011 3012 3015 3013 3018 3012 3007 2996 3004 2999 3011 3016 3019 3022 3026 3027 3029 3032 3035 3039 3040 3040 3042 3043 3045 3049 3048 3046 3046 3047 3046
3036 3031 3027 3021 3015 3011 3007 3004 3001 3000 2999 2995 2994 2989 2993 2993 2993 2986 2991 2985 2993 2973 2987 2998 3000 3004 3007 3009 3013 3018 3020 3024 3026 3029 3033 3035 3036 3034 3033 3036 3037 3036 3036
3029 3021 3016 3011 3007 3000 2995 2990 2988 2983 2984 2983 2979 2978 2974 2979 2976 2977 2983 2974 2983 2978 2977 2985 2974 2979 2971 2981 2991 2998 3004 3006 3014 3016 3018 3017 3020 3023 3023 3025 3026 3026 3025
3020 3013 3006 2999 2994 2990 2986 2982 2978 2974 2969 2970 2970 2968 2966 2965 2966 2965 2965 2971 2971 2972 2964 2957 2950 2952 2957 2969 2979 2980 2987 2988 2994 2996 2994 2997 3005 3008 3011 3012 3015 3015 3014
3012 3005 2997 2989 2983 2980 2976 2970 2966 2962 2961 2960 2956 2955 2956 2958 2953 2951 2951 2951 2954 2956 2958 2957 2956 2952 2955 2959 2965 2969 2970 2973 2978 2979 2980 2984 2989 2992 2998 3001 3003 3004 3003
2997 2993 2987 2980 2973 2970 2965 2961 2956 2952 2949 2946 2944 2943 2940 2938 2935 2937 2937 2942 2942 2948 2950 2934 2938 2939 2940 2945 2954 2948 2955 2960 2963 2966 2971 2971 2974 2979 2981 2985 2988 2990 2991
2989 2982 2976 2971 2966 2961 2957 2952 2948 2942 2938 2937 2936 2934 2930 2925 2925 2924 2924 2926 2927 2930 2934 2924 2930 2930 2932 2928 2937 2939 2939 2948 2951 2953 2958 2960 2960 2965 2966 2969 2974 2974 2976